Location: Middelsbur
(53.6609°N, 7.5020°E)
Time: 13:24:46
(UTC+00:00)

USA 81 - Pass Details

Date: 06 July 2020
Orbit: 786 x 788 km, 85.0° (Epoch: 17 July)

Event Time Altitude Azimuth Distance (km) Brightness Sun altitude
Exits shadow 20:48:47 - 173° (S) 3,039 6.6 -5.8°
Reaches altitude 10° 20:50:34 10° 170° (S) 2,344 6.0 -5.9°
Maximum altitude 20:55:45 61° 91° (E) 891 4.2 -6.4°
Drops below altitude 10° 21:00:57 10° 13° (NNE) 2,360 7.2 -6.8°
Sets 21:03:21 0° 10° (N) 3,294 8.0 -7.0°
